EFIV Weather Reports


Display with metric or nautical units.
time (UTC)temp
F
wind
direction
speed
MPH
gust
MPH
rain 1hr
in
rain 24hr
in
rain mn
in
humidity
%
barometer
mb
20260509092740 47 179 8.0 14.0 0.00 0.00 0.00 34 1025.1
20260509090740 49 110 4.0 7.0 0.00 0.00 0.00 35 1025.2
20260509084739 47 144 4.0 8.0 0.00 0.00 0.00 36 1025.5
20260509082739 46 137 5.0 9.0 0.00 0.00 0.00 39 1025.6
20260509080739 46 162 4.0 7.0 0.00 0.00 0.00 39 1025.8
20260509074739 46 146 4.0 8.0 0.00 0.00 0.00 40 1026.0
20260509072739 45 175 5.0 10.0 0.00 0.00 0.00 41 1026.2
20260509070739 43 142 5.0 9.0 0.00 0.00 0.00 45 1026.3
20260509064740 42 98 7.0 12.0 0.00 0.00 0.00 45 1026.6
20260509062739 40 85 3.0 8.0 0.00 0.00 0.00 54 1026.7
20260509060739 40 117 2.0 3.0 0.00 0.00 0.00 55 1026.9
20260509054739 38 360 1.0 6.0 0.00 0.00 0.00 58 1027.2
20260509052739 38 143 1.0 3.0 0.00 0.00 0.00 58 1027.2
20260509050740 36 94 1.0 3.0 0.00 0.00 0.00 62 1027.4
20260509044739 34 115 1.0 2.0 0.00 0.00 0.00 66 1027.5
20260509042738 34 146 1.0 2.0 0.00 0.00 0.00 64 1027.6
20260509040737 31 204 1.0 2.0 0.00 0.00 0.00 72 1027.8
20260509034738 29 246 1.0 2.0 0.00 0.00 0.00 77 1027.9
20260509032737 28 289 1.0 2.0 0.00 0.00 0.00 79 1028.0
20260509030737 26 68 1.0 2.0 0.00 0.00 0.00 83 1028.1
20260509024738 26 254 2.0 3.0 0.00 0.00 0.00 87 1028.1
20260509022739 24 281 2.0 2.0 0.00 0.00 0.00 90 1028.2
20260509020739 24 173 1.0 2.0 0.00 0.00 0.00 88 1028.1
20260509014738 24 264 1.0 1.0 0.00 0.00 0.00 88 1028.1
20260509012738 24 236 1.0 2.0 0.00 0.00 0.00 90 1028.1
20260509010737 24 245 3.0 4.0 0.00 0.00 0.00 90 1028.0
20260509004738 25 229 3.0 4.0 0.00 0.00 0.00 90 1028.0
20260509002738 24 244 2.0 2.0 0.00 0.00 0.00 89 1027.9
20260509000739 26 258 2.0 4.0 0.00 0.00 0.00 88 1027.6
20260508234739 26 249 3.0 4.0 0.00 0.00 0.00 90 1027.7
20260508232738 27 229 3.0 4.0 0.00 0.00 0.00 85 1027.4
20260508230738 26 308 1.0 2.0 0.00 0.00 0.00 90 1027.4
20260508224738 26 53 1.0 1.0 0.00 0.00 0.00 86 1027.3
20260508222738 27 101 2.0 3.0 0.00 0.00 0.00 86 1027.2
20260508220738 28 277 2.0 3.0 0.00 0.00 0.00 83 1027.2
20260508214738 29 157 1.0 3.0 0.00 0.00 0.00 74 1026.9
20260508212738 31 217 2.0 3.0 0.00 0.00 0.00 70 1026.8
20260508210739 29 179 1.0 1.0 0.00 0.00 0.00 77 1026.7
20260508204738 32 246 2.0 3.0 0.00 0.00 0.00 68 1026.5
20260508202737 31 120 1.0 2.0 0.00 0.00 0.00 72 1026.4
20260508200737 35 283 1.0 2.0 0.00 0.00 0.00 57 1025.9
20260508194737 36 41 2.0 3.0 0.00 0.00 0.00 55 1025.6
20260508192737 37 35 3.0 4.0 0.00 0.00 0.00 54 1025.4
20260508190737 38 45 6.0 7.0 0.00 0.00 0.00 50 1025.1
20260508184736 38 40 5.0 6.0 0.00 0.00 0.00 51 1024.9
20260508182736 41 30 4.0 6.0 0.00 0.00 0.00 46 1024.7
20260508180736 41 24 3.0 4.0 0.00 0.00 0.00 45 1024.6
20260508174736 43 31 4.0 7.0 0.00 0.00 0.00 41 1024.4
20260508172736 44 339 4.0 5.0 0.00 0.00 0.00 40 1024.3
20260508170736 45 356 4.0 6.0 0.00 0.00 0.00 38 1024.1
20260508164735 46 2 5.0 9.0 0.00 0.00 0.00 36 1024.0
20260508162737 46 346 6.0 8.0 0.00 0.00 0.00 37 1023.9
20260508160737 46 315 3.0 6.0 0.00 0.00 0.00 35 1023.8
20260508154735 46 286 6.0 8.0 0.00 0.00 0.00 38 1023.8
20260508152736 45 321 4.0 7.0 0.00 0.00 0.00 39 1023.7
20260508150736 46 358 4.0 8.0 0.00 0.00 0.00 39 1023.7
20260508144736 44 2 9.0 16.0 0.00 0.00 0.00 41 1023.8
20260508142735 44 355 5.0 7.0 0.00 0.00 0.00 40 1023.7
20260508140735 45 344 8.0 13.0 0.00 0.00 0.00 40 1023.6
20260508134736 46 284 10.0 15.0 0.00 0.00 0.00 38 1023.7
20260508132736 44 287 8.0 15.0 0.00 0.00 0.00 38 1023.6
20260508130735 45 303 6.0 10.0 0.00 0.00 0.00 35 1023.5
20260508124735 45 293 7.0 14.0 0.00 0.00 0.00 34 1023.4
20260508122735 46 276 8.0 13.0 0.00 0.00 0.00 33 1023.1
20260508120735 45 283 8.0 12.0 0.00 0.00 0.00 35 1023.2
20260508114735 45 253 3.0 9.0 0.00 0.00 0.00 33 1023.1
20260508112736 46 324 8.0 13.0 0.00 0.00 0.00 33 1022.9
20260508110735 45 321 5.0 10.0 0.00 0.00 0.00 35 1022.9
20260508104735 44 14 5.0 10.0 0.00 0.00 0.00 36 1022.9
20260508102735 44 334 6.0 11.0 0.00 0.00 0.00 35 1022.7
20260508100735 44 32 2.0 5.0 0.00 0.00 0.00 34 1022.6
20260508094735 43 269 8.0 11.0 0.00 0.00 0.00 39 1022.6